owner,sensor,date,latitude,longitude,vertical_datum,sea_water_temperature,qcFlag
Anadarko,ioos:station:wmo:42377:1,2022-07-01T00:01:00Z,27.2925,-90.9681,21.3,29.5,11111222
Anadarko,ioos:station:wmo:42377:1,2022-07-01T00:21:00Z,27.2925,-90.9681,21.3,29.5,11111222
Anadarko,ioos:station:wmo:42377:1,2022-07-01T00:41:00Z,27.2925,-90.9681,21.3,29.5,11111222
Anadarko,ioos:station:wmo:42377:1,2022-07-01T01:01:00Z,27.2925,-90.9681,21.3,29.5,11111222
Anadarko,ioos:station:wmo:42377:1,2022-07-01T01:21:00Z,27.2925,-90.9681,21.3,29.5,11111222
Anadarko,ioos:station:wmo:42377:1,2022-07-01T01:41:00Z,27.2925,-90.9681,21.3,29.5,11111222
Anadarko,ioos:station:wmo:42377:1,2022-07-01T02:01:00Z,27.2925,-90.9681,21.3,29.5,11111222
Anadarko,ioos:station:wmo:42377:1,2022-07-01T02:21:00Z,27.2925,-90.9681,21.3,29.5,11111222
Anadarko,ioos:station:wmo:42377:1,2022-07-01T02:41:00Z,27.2925,-90.9681,21.3,29.5,11111222
Anadarko,ioos:station:wmo:42377:1,2022-07-01T03:01:00Z,27.2925,-90.9681,21.3,29.5,11111222
Anadarko,ioos:station:wmo:42377:1,2022-07-01T03:21:00Z,27.2925,-90.9681,21.3,29.5,11111222
Anadarko,ioos:station:wmo:42377:1,2022-07-01T03:41:00Z,27.2925,-90.9681,21.3,29.3,11111222
Anadarko,ioos:station:wmo:42377:1,2022-07-01T04:01:00Z,27.2925,-90.9681,21.3,29.3,11111222
Anadarko,ioos:station:wmo:42377:1,2022-07-01T04:21:00Z,27.2925,-90.9681,21.3,29.0,11111222
Anadarko,ioos:station:wmo:42377:1,2022-07-01T04:41:00Z,27.2925,-90.9681,21.3,28.8,11111222
Anadarko,ioos:station:wmo:42377:1,2022-07-01T05:01:00Z,27.2925,-90.9681,21.3,28.7,11111222
Anadarko,ioos:station:wmo:42377:1,2022-07-01T05:21:00Z,27.2925,-90.9681,21.3,28.8,11111222
Anadarko,ioos:station:wmo:42377:1,2022-07-01T05:41:00Z,27.2925,-90.9681,21.3,28.7,11111222
Anadarko,ioos:station:wmo:42377:1,2022-07-01T06:01:00Z,27.2925,-90.9681,21.3,28.6,11111222
Anadarko,ioos:station:wmo:42377:1,2022-07-01T06:21:00Z,27.2925,-90.9681,21.3,28.4,11111222
Anadarko,ioos:station:wmo:42377:1,2022-07-01T06:41:00Z,27.2925,-90.9681,21.3,28.7,11111222
Anadarko,ioos:station:wmo:42377:1,2022-07-01T07:01:00Z,27.2925,-90.9681,21.3,28.4,11111222
Anadarko,ioos:station:wmo:42377:1,2022-07-01T07:21:00Z,27.2925,-90.9681,21.3,28.4,11111222
Anadarko,ioos:station:wmo:42377:1,2022-07-01T07:41:00Z,27.2925,-90.9681,21.3,29.0,11111222
Anadarko,ioos:station:wmo:42377:1,2022-07-01T08:01:00Z,27.2925,-90.9681,21.3,28.7,11111222
Anadarko,ioos:station:wmo:42377:1,2022-07-01T08:21:00Z,27.2925,-90.9681,21.3,28.6,11111222
Anadarko,ioos:station:wmo:42377:1,2022-07-01T08:41:00Z,27.2925,-90.9681,21.3,29.3,11111222
Anadarko,ioos:station:wmo:42377:1,2022-07-01T09:01:00Z,27.2925,-90.9681,21.3,29.3,11111222
Anadarko,ioos:station:wmo:42377:1,2022-07-01T09:21:00Z,27.2925,-90.9681,21.3,29.2,11111222
Anadarko,ioos:station:wmo:42377:1,2022-07-01T09:41:00Z,27.2925,-90.9681,21.3,29.2,11111222
Anadarko,ioos:station:wmo:42377:1,2022-07-01T10:01:00Z,27.2925,-90.9681,21.3,29.2,11111222
Anadarko,ioos:station:wmo:42377:1,2022-07-01T10:21:00Z,27.2925,-90.9681,21.3,29.1,11111222
Anadarko,ioos:station:wmo:42377:1,2022-07-01T10:41:00Z,27.2925,-90.9681,21.3,29.1,11111222
Anadarko,ioos:station:wmo:42377:1,2022-07-01T11:01:00Z,27.2925,-90.9681,21.3,29.2,11111222
Anadarko,ioos:station:wmo:42377:1,2022-07-01T11:21:00Z,27.2925,-90.9681,21.3,29.2,11111222
Anadarko,ioos:station:wmo:42377:1,2022-07-01T11:41:00Z,27.2925,-90.9681,21.3,29.1,11111222
Anadarko,ioos:station:wmo:42377:1,2022-07-01T12:01:00Z,27.2925,-90.9681,21.3,28.7,11111222
Anadarko,ioos:station:wmo:42377:1,2022-07-01T12:21:00Z,27.2925,-90.9681,21.3,28.8,11111222
Anadarko,ioos:station:wmo:42377:1,2022-07-01T12:41:00Z,27.2925,-90.9681,21.3,28.7,11111222
Anadarko,ioos:station:wmo:42377:1,2022-07-01T13:01:00Z,27.2925,-90.9681,21.3,28.2,11111222
Anadarko,ioos:station:wmo:42377:1,2022-07-01T13:21:00Z,27.2925,-90.9681,21.3,28.1,11111222
Anadarko,ioos:station:wmo:42377:1,2022-07-01T13:41:00Z,27.2925,-90.9681,21.3,28.2,11111222
Anadarko,ioos:station:wmo:42377:1,2022-07-01T14:01:00Z,27.2925,-90.9681,21.3,28.3,11111222
Anadarko,ioos:station:wmo:42377:1,2022-07-01T14:21:00Z,27.2925,-90.9681,21.3,28.2,11111222
Anadarko,ioos:station:wmo:42377:1,2022-07-01T14:41:00Z,27.2925,-90.9681,21.3,28.3,11111222
Anadarko,ioos:station:wmo:42377:1,2022-07-01T15:01:00Z,27.2925,-90.9681,21.3,28.2,11111222
Anadarko,ioos:station:wmo:42377:1,2022-07-01T15:21:00Z,27.2925,-90.9681,21.3,28.3,11111222
Anadarko,ioos:station:wmo:42377:1,2022-07-01T15:41:00Z,27.2925,-90.9681,21.3,28.5,11111222
Anadarko,ioos:station:wmo:42377:1,2022-07-01T16:01:00Z,27.2925,-90.9681,21.3,28.6,11111222
Anadarko,ioos:station:wmo:42377:1,2022-07-01T16:21:00Z,27.2925,-90.9681,21.3,28.8,11111222
Anadarko,ioos:station:wmo:42377:1,2022-07-01T16:41:00Z,27.2925,-90.9681,21.3,29.1,11111222
Anadarko,ioos:station:wmo:42377:1,2022-07-01T17:01:00Z,27.2925,-90.9681,21.3,29.3,11111222
Anadarko,ioos:station:wmo:42377:1,2022-07-01T17:21:00Z,27.2925,-90.9681,21.3,29.3,11111222
Anadarko,ioos:station:wmo:42377:1,2022-07-01T17:41:00Z,27.2925,-90.9681,21.3,29.3,11111222
Anadarko,ioos:station:wmo:42377:1,2022-07-01T18:01:00Z,27.2925,-90.9681,21.3,29.3,11111222
Anadarko,ioos:station:wmo:42377:1,2022-07-01T18:21:00Z,27.2925,-90.9681,21.3,29.3,11111222
Anadarko,ioos:station:wmo:42377:1,2022-07-01T18:41:00Z,27.2925,-90.9681,21.3,29.2,11111222
Anadarko,ioos:station:wmo:42377:1,2022-07-01T19:01:00Z,27.2925,-90.9681,21.3,29.1,11111222
Anadarko,ioos:station:wmo:42377:1,2022-07-01T19:21:00Z,27.2925,-90.9681,21.3,29.1,11111222
Anadarko,ioos:station:wmo:42377:1,2022-07-01T19:41:00Z,27.2925,-90.9681,21.3,29.1,11111222
Anadarko,ioos:station:wmo:42377:1,2022-07-01T20:01:00Z,27.2925,-90.9681,21.3,29.1,11111222
Anadarko,ioos:station:wmo:42377:1,2022-07-01T20:21:00Z,27.2925,-90.9681,21.3,29.1,11111222
Anadarko,ioos:station:wmo:42377:1,2022-07-01T20:41:00Z,27.2925,-90.9681,21.3,29.1,11111222
Anadarko,ioos:station:wmo:42377:1,2022-07-01T21:01:00Z,27.2925,-90.9681,21.3,29.1,11111222
Anadarko,ioos:station:wmo:42377:1,2022-07-01T21:21:00Z,27.2925,-90.9681,21.3,29.3,11111222
Anadarko,ioos:station:wmo:42377:1,2022-07-01T21:41:00Z,27.2925,-90.9681,21.3,29.4,11111222
Anadarko,ioos:station:wmo:42377:1,2022-07-01T22:01:00Z,27.2925,-90.9681,21.3,29.5,11111222
Anadarko,ioos:station:wmo:42377:1,2022-07-01T22:21:00Z,27.2925,-90.9681,21.3,29.6,11111222
Anadarko,ioos:station:wmo:42377:1,2022-07-01T22:41:00Z,27.2925,-90.9681,21.3,29.5,11111222
Anadarko,ioos:station:wmo:42377:1,2022-07-01T23:01:00Z,27.2925,-90.9681,21.3,29.5,11111222
Anadarko,ioos:station:wmo:42377:1,2022-07-01T23:21:00Z,27.2925,-90.9681,21.3,29.6,11111222
Anadarko,ioos:station:wmo:42377:1,2022-07-01T23:41:00Z,27.2925,-90.9681,21.3,29.6,11111222
Anadarko,ioos:station:wmo:42377:1,2022-07-02T00:01:00Z,27.2925,-90.9681,21.3,29.6,11111222
Anadarko,ioos:station:wmo:42377:1,2022-07-02T00:21:00Z,27.2925,-90.9681,21.3,29.6,11111222
Anadarko,ioos:station:wmo:42377:1,2022-07-02T00:41:00Z,27.2925,-90.9681,21.3,29.6,11111222
Anadarko,ioos:station:wmo:42377:1,2022-07-02T01:01:00Z,27.2925,-90.9681,21.3,29.6,11111222
Anadarko,ioos:station:wmo:42377:1,2022-07-02T01:21:00Z,27.2925,-90.9681,21.3,29.6,11111222
Anadarko,ioos:station:wmo:42377:1,2022-07-02T01:41:00Z,27.2925,-90.9681,21.3,29.6,11111222
Anadarko,ioos:station:wmo:42377:1,2022-07-02T02:01:00Z,27.2925,-90.9681,21.3,29.6,11111222
Anadarko,ioos:station:wmo:42377:1,2022-07-02T02:21:00Z,27.2925,-90.9681,21.3,29.4,11111222
Anadarko,ioos:station:wmo:42377:1,2022-07-02T02:41:00Z,27.2925,-90.9681,21.3,29.4,11111222
Anadarko,ioos:station:wmo:42377:1,2022-07-02T03:01:00Z,27.2925,-90.9681,21.3,29.4,11111222
Anadarko,ioos:station:wmo:42377:1,2022-07-02T03:21:00Z,27.2925,-90.9681,21.3,29.2,11111222
Anadarko,ioos:station:wmo:42377:1,2022-07-02T03:41:00Z,27.2925,-90.9681,21.3,29.3,11111222
Anadarko,ioos:station:wmo:42377:1,2022-07-02T04:01:00Z,27.2925,-90.9681,21.3,29.4,11111222
Anadarko,ioos:station:wmo:42377:1,2022-07-02T04:21:00Z,27.2925,-90.9681,21.3,29.4,11111222
Anadarko,ioos:station:wmo:42377:1,2022-07-02T04:41:00Z,27.2925,-90.9681,21.3,29.4,11111222
Anadarko,ioos:station:wmo:42377:1,2022-07-02T05:01:00Z,27.2925,-90.9681,21.3,29.4,11111222
Anadarko,ioos:station:wmo:42377:1,2022-07-02T05:20:00Z,27.2925,-90.9681,21.3,29.5,11111222
Anadarko,ioos:station:wmo:42377:1,2022-07-02T05:40:00Z,27.2925,-90.9681,21.3,29.5,11111222
Anadarko,ioos:station:wmo:42377:1,2022-07-02T06:00:00Z,27.2925,-90.9681,21.3,29.5,11111222
Anadarko,ioos:station:wmo:42377:1,2022-07-02T06:20:00Z,27.2925,-90.9681,21.3,29.5,11111222
Anadarko,ioos:station:wmo:42377:1,2022-07-02T06:40:00Z,27.2925,-90.9681,21.3,29.4,11111222
Anadarko,ioos:station:wmo:42377:1,2022-07-02T07:00:00Z,27.2925,-90.9681,21.3,29.4,11111222
Anadarko,ioos:station:wmo:42377:1,2022-07-02T07:20:00Z,27.2925,-90.9681,21.3,29.4,11111222
Anadarko,ioos:station:wmo:42377:1,2022-07-02T07:40:00Z,27.2925,-90.9681,21.3,29.4,11111222
Anadarko,ioos:station:wmo:42377:1,2022-07-02T08:00:00Z,27.2925,-90.9681,21.3,29.5,11111222
Anadarko,ioos:station:wmo:42377:1,2022-07-02T08:20:00Z,27.2925,-90.9681,21.3,29.5,11111222
Anadarko,ioos:station:wmo:42377:1,2022-07-02T08:40:00Z,27.2925,-90.9681,21.3,29.5,11111222
Anadarko,ioos:station:wmo:42377:1,2022-07-02T09:00:00Z,27.2925,-90.9681,21.3,29.4,11111222
Anadarko,ioos:station:wmo:42377:1,2022-07-02T09:20:00Z,27.2925,-90.9681,21.3,29.2,11111222
Anadarko,ioos:station:wmo:42377:1,2022-07-02T09:40:00Z,27.2925,-90.9681,21.3,29.2,11111222
Anadarko,ioos:station:wmo:42377:1,2022-07-02T10:00:00Z,27.2925,-90.9681,21.3,29.2,11111222
Anadarko,ioos:station:wmo:42377:1,2022-07-02T10:20:00Z,27.2925,-90.9681,21.3,29.2,11111222
Anadarko,ioos:station:wmo:42377:1,2022-07-02T10:40:00Z,27.2925,-90.9681,21.3,29.2,11111222
Anadarko,ioos:station:wmo:42377:1,2022-07-02T11:00:00Z,27.2925,-90.9681,21.3,29.3,11111222
Anadarko,ioos:station:wmo:42377:1,2022-07-02T11:20:00Z,27.2925,-90.9681,21.3,29.3,11111222
Anadarko,ioos:station:wmo:42377:1,2022-07-02T11:40:00Z,27.2925,-90.9681,21.3,29.3,11111222
Anadarko,ioos:station:wmo:42377:1,2022-07-02T12:00:00Z,27.2925,-90.9681,21.3,29.3,11111222
Anadarko,ioos:station:wmo:42377:1,2022-07-02T12:20:00Z,27.2925,-90.9681,21.3,29.3,11111222
Anadarko,ioos:station:wmo:42377:1,2022-07-02T12:40:00Z,27.2925,-90.9681,21.3,29.2,11111222
Anadarko,ioos:station:wmo:42377:1,2022-07-02T13:00:00Z,27.2925,-90.9681,21.3,29.2,11111222
Anadarko,ioos:station:wmo:42377:1,2022-07-02T13:20:00Z,27.2925,-90.9681,21.3,29.3,11111222
Anadarko,ioos:station:wmo:42377:1,2022-07-02T13:40:00Z,27.2925,-90.9681,21.3,29.3,11111222
Anadarko,ioos:station:wmo:42377:1,2022-07-02T14:00:00Z,27.2925,-90.9681,21.3,29.2,11111222
Anadarko,ioos:station:wmo:42377:1,2022-07-02T14:20:00Z,27.2925,-90.9681,21.3,29.2,11111222
Anadarko,ioos:station:wmo:42377:1,2022-07-02T14:40:00Z,27.2925,-90.9681,21.3,29.2,11111222
Anadarko,ioos:station:wmo:42377:1,2022-07-02T15:00:00Z,27.2925,-90.9681,21.3,29.1,11111222
Anadarko,ioos:station:wmo:42377:1,2022-07-02T15:20:00Z,27.2925,-90.9681,21.3,29.1,11111222
Anadarko,ioos:station:wmo:42377:1,2022-07-02T15:40:00Z,27.2925,-90.9681,21.3,29.2,11111222
Anadarko,ioos:station:wmo:42377:1,2022-07-02T16:00:00Z,27.2925,-90.9681,21.3,29.2,11111222
Anadarko,ioos:station:wmo:42377:1,2022-07-02T16:20:00Z,27.2925,-90.9681,21.3,29.1,11111222
Anadarko,ioos:station:wmo:42377:1,2022-07-02T16:40:00Z,27.2925,-90.9681,21.3,29.2,11111222
Anadarko,ioos:station:wmo:42377:1,2022-07-02T17:00:00Z,27.2925,-90.9681,21.3,29.1,11111222
Anadarko,ioos:station:wmo:42377:1,2022-07-02T17:20:00Z,27.2925,-90.9681,21.3,29.3,11111222
Anadarko,ioos:station:wmo:42377:1,2022-07-02T17:40:00Z,27.2925,-90.9681,21.3,29.3,11111222
Anadarko,ioos:station:wmo:42377:1,2022-07-02T18:00:00Z,27.2925,-90.9681,21.3,29.4,11111222
Anadarko,ioos:station:wmo:42377:1,2022-07-02T18:20:00Z,27.2925,-90.9681,21.3,29.5,11111222
Anadarko,ioos:station:wmo:42377:1,2022-07-02T18:40:00Z,27.2925,-90.9681,21.3,29.5,11111222
Anadarko,ioos:station:wmo:42377:1,2022-07-02T19:00:00Z,27.2925,-90.9681,21.3,29.6,11111222
Anadarko,ioos:station:wmo:42377:1,2022-07-02T19:20:00Z,27.2925,-90.9681,21.3,29.6,11111222
Anadarko,ioos:station:wmo:42377:1,2022-07-02T19:40:00Z,27.2925,-90.9681,21.3,29.5,11111222
Anadarko,ioos:station:wmo:42377:1,2022-07-02T20:00:00Z,27.2925,-90.9681,21.3,29.6,11111222
Anadarko,ioos:station:wmo:42377:1,2022-07-02T20:20:00Z,27.2925,-90.9681,21.3,29.6,11111222
Anadarko,ioos:station:wmo:42377:1,2022-07-02T20:40:00Z,27.2925,-90.9681,21.3,29.4,11111222
Anadarko,ioos:station:wmo:42377:1,2022-07-02T21:00:00Z,27.2925,-90.9681,21.3,29.4,11111222
Anadarko,ioos:station:wmo:42377:1,2022-07-02T21:20:00Z,27.2925,-90.9681,21.3,29.4,11111222
Anadarko,ioos:station:wmo:42377:1,2022-07-02T21:40:00Z,27.2925,-90.9681,21.3,29.4,11111222
Anadarko,ioos:station:wmo:42377:1,2022-07-02T22:00:00Z,27.2925,-90.9681,21.3,29.3,11111222
Anadarko,ioos:station:wmo:42377:1,2022-07-02T22:20:00Z,27.2925,-90.9681,21.3,29.3,11111222
Anadarko,ioos:station:wmo:42377:1,2022-07-02T22:40:00Z,27.2925,-90.9681,21.3,29.4,11111222
Anadarko,ioos:station:wmo:42377:1,2022-07-02T23:00:00Z,27.2925,-90.9681,21.3,29.4,11111222
Anadarko,ioos:station:wmo:42377:1,2022-07-02T23:20:00Z,27.2925,-90.9681,21.3,29.4,11111222
Anadarko,ioos:station:wmo:42377:1,2022-07-02T23:40:00Z,27.2925,-90.9681,21.3,29.4,11111222
Anadarko,ioos:station:wmo:42377:1,2022-07-03T00:00:00Z,27.2925,-90.9681,21.3,29.4,11111222
Anadarko,ioos:station:wmo:42377:1,2022-07-03T00:20:00Z,27.2925,-90.9681,21.3,29.5,11111222
Anadarko,ioos:station:wmo:42377:1,2022-07-03T00:40:00Z,27.2925,-90.9681,21.3,29.5,11111222
Anadarko,ioos:station:wmo:42377:1,2022-07-03T01:00:00Z,27.2925,-90.9681,21.3,29.6,11111222
Anadarko,ioos:station:wmo:42377:1,2022-07-03T01:20:00Z,27.2925,-90.9681,21.3,29.6,11111222
Anadarko,ioos:station:wmo:42377:1,2022-07-03T01:40:00Z,27.2925,-90.9681,21.3,29.6,11111222
Anadarko,ioos:station:wmo:42377:1,2022-07-03T02:00:00Z,27.2925,-90.9681,21.3,29.6,11111222
Anadarko,ioos:station:wmo:42377:1,2022-07-03T02:20:00Z,27.2925,-90.9681,21.3,29.6,11111222
Anadarko,ioos:station:wmo:42377:1,2022-07-03T02:40:00Z,27.2925,-90.9681,21.3,29.6,11111222
Anadarko,ioos:station:wmo:42377:1,2022-07-03T03:00:00Z,27.2925,-90.9681,21.3,29.6,11111222
Anadarko,ioos:station:wmo:42377:1,2022-07-03T03:20:00Z,27.2925,-90.9681,21.3,29.6,11111222
Anadarko,ioos:station:wmo:42377:1,2022-07-03T03:40:00Z,27.2925,-90.9681,21.3,29.7,11111222
Anadarko,ioos:station:wmo:42377:1,2022-07-03T04:00:00Z,27.2925,-90.9681,21.3,29.7,11111222
Anadarko,ioos:station:wmo:42377:1,2022-07-03T04:20:00Z,27.2925,-90.9681,21.3,29.6,11111222
Anadarko,ioos:station:wmo:42377:1,2022-07-03T04:40:00Z,27.2925,-90.9681,21.3,29.6,11111222
Anadarko,ioos:station:wmo:42377:1,2022-07-03T05:00:00Z,27.2925,-90.9681,21.3,29.7,11111222
Anadarko,ioos:station:wmo:42377:1,2022-07-03T05:20:00Z,27.2925,-90.9681,21.3,29.7,11111222
Anadarko,ioos:station:wmo:42377:1,2022-07-03T05:40:00Z,27.2925,-90.9681,21.3,29.7,11111222
Anadarko,ioos:station:wmo:42377:1,2022-07-03T06:00:00Z,27.2925,-90.9681,21.3,29.7,11111222
Anadarko,ioos:station:wmo:42377:1,2022-07-03T06:20:00Z,27.2925,-90.9681,21.3,29.7,11111222
Anadarko,ioos:station:wmo:42377:1,2022-07-03T06:40:00Z,27.2925,-90.9681,21.3,29.7,11111222
Anadarko,ioos:station:wmo:42377:1,2022-07-03T07:00:00Z,27.2925,-90.9681,21.3,29.7,11111222
Anadarko,ioos:station:wmo:42377:1,2022-07-03T07:20:00Z,27.2925,-90.9681,21.3,29.7,11111222
Anadarko,ioos:station:wmo:42377:1,2022-07-03T07:40:00Z,27.2925,-90.9681,21.3,29.5,11111222
Anadarko,ioos:station:wmo:42377:1,2022-07-03T08:00:00Z,27.2925,-90.9681,21.3,29.5,11111222
Anadarko,ioos:station:wmo:42377:1,2022-07-03T08:20:00Z,27.2925,-90.9681,21.3,29.4,11111222
Anadarko,ioos:station:wmo:42377:1,2022-07-03T08:40:00Z,27.2925,-90.9681,21.3,29.4,11111222
Anadarko,ioos:station:wmo:42377:1,2022-07-03T09:00:00Z,27.2925,-90.9681,21.3,29.4,11111222
Anadarko,ioos:station:wmo:42377:1,2022-07-03T09:20:00Z,27.2925,-90.9681,21.3,29.4,11111222
Anadarko,ioos:station:wmo:42377:1,2022-07-03T09:40:00Z,27.2925,-90.9681,21.3,29.3,11111222
Anadarko,ioos:station:wmo:42377:1,2022-07-03T10:00:00Z,27.2925,-90.9681,21.3,29.3,11111222
Anadarko,ioos:station:wmo:42377:1,2022-07-03T10:20:00Z,27.2925,-90.9681,21.3,29.3,11111222
Anadarko,ioos:station:wmo:42377:1,2022-07-03T10:40:00Z,27.2925,-90.9681,21.3,29.4,11111222
Anadarko,ioos:station:wmo:42377:1,2022-07-03T11:00:00Z,27.2925,-90.9681,21.3,29.4,11111222
Anadarko,ioos:station:wmo:42377:1,2022-07-03T11:20:00Z,27.2925,-90.9681,21.3,29.5,11111222
Anadarko,ioos:station:wmo:42377:1,2022-07-03T11:40:00Z,27.2925,-90.9681,21.3,29.5,11111222
Anadarko,ioos:station:wmo:42377:1,2022-07-03T12:00:00Z,27.2925,-90.9681,21.3,29.4,11111222
Anadarko,ioos:station:wmo:42377:1,2022-07-03T12:20:00Z,27.2925,-90.9681,21.3,29.4,11111222
Anadarko,ioos:station:wmo:42377:1,2022-07-03T12:40:00Z,27.2925,-90.9681,21.3,29.4,11111222
Anadarko,ioos:station:wmo:42377:1,2022-07-03T13:00:00Z,27.2925,-90.9681,21.3,29.4,11111222
Anadarko,ioos:station:wmo:42377:1,2022-07-03T13:20:00Z,27.2925,-90.9681,21.3,29.3,11111222
Anadarko,ioos:station:wmo:42377:1,2022-07-03T13:40:00Z,27.2925,-90.9681,21.3,29.2,11111222
Anadarko,ioos:station:wmo:42377:1,2022-07-03T14:00:00Z,27.2925,-90.9681,21.3,29.3,11111222
Anadarko,ioos:station:wmo:42377:1,2022-07-03T14:20:00Z,27.2925,-90.9681,21.3,29.3,11111222
Anadarko,ioos:station:wmo:42377:1,2022-07-03T14:40:00Z,27.2925,-90.9681,21.3,29.3,11111222
Anadarko,ioos:station:wmo:42377:1,2022-07-03T15:00:00Z,27.2925,-90.9681,21.3,29.3,11111222
Anadarko,ioos:station:wmo:42377:1,2022-07-03T15:20:00Z,27.2925,-90.9681,21.3,29.3,11111222
Anadarko,ioos:station:wmo:42377:1,2022-07-03T15:40:00Z,27.2925,-90.9681,21.3,29.4,11111222
Anadarko,ioos:station:wmo:42377:1,2022-07-03T16:00:00Z,27.2925,-90.9681,21.3,29.5,11111222
Anadarko,ioos:station:wmo:42377:1,2022-07-03T16:20:00Z,27.2925,-90.9681,21.3,29.6,11111222
Anadarko,ioos:station:wmo:42377:1,2022-07-03T16:40:00Z,27.2925,-90.9681,21.3,29.6,11111222
Anadarko,ioos:station:wmo:42377:1,2022-07-03T17:00:00Z,27.2925,-90.9681,21.3,29.6,11111222
Anadarko,ioos:station:wmo:42377:1,2022-07-03T17:20:00Z,27.2925,-90.9681,21.3,29.6,11111222
Anadarko,ioos:station:wmo:42377:1,2022-07-03T17:40:00Z,27.2925,-90.9681,21.3,29.6,11111222
Anadarko,ioos:station:wmo:42377:1,2022-07-03T18:00:00Z,27.2925,-90.9681,21.3,29.6,11111222
Anadarko,ioos:station:wmo:42377:1,2022-07-03T18:20:00Z,27.2925,-90.9681,21.3,29.6,11111222
Anadarko,ioos:station:wmo:42377:1,2022-07-03T18:40:00Z,27.2925,-90.9681,21.3,29.5,11111222
Anadarko,ioos:station:wmo:42377:1,2022-07-03T19:00:00Z,27.2925,-90.9681,21.3,29.5,11111222
Anadarko,ioos:station:wmo:42377:1,2022-07-03T19:20:00Z,27.2925,-90.9681,21.3,29.5,11111222
Anadarko,ioos:station:wmo:42377:1,2022-07-03T19:40:00Z,27.2925,-90.9681,21.3,29.6,11111222
Anadarko,ioos:station:wmo:42377:1,2022-07-03T20:00:00Z,27.2925,-90.9681,21.3,29.6,11111222
Anadarko,ioos:station:wmo:42377:1,2022-07-03T20:20:00Z,27.2925,-90.9681,21.3,29.6,11111222
Anadarko,ioos:station:wmo:42377:1,2022-07-03T20:40:00Z,27.2925,-90.9681,21.3,29.6,11111222
Anadarko,ioos:station:wmo:42377:1,2022-07-03T21:00:00Z,27.2925,-90.9681,21.3,29.5,11111222
Anadarko,ioos:station:wmo:42377:1,2022-07-03T21:20:00Z,27.2925,-90.9681,21.3,29.5,11111222
Anadarko,ioos:station:wmo:42377:1,2022-07-03T21:40:00Z,27.2925,-90.9681,21.3,29.4,11111222
Anadarko,ioos:station:wmo:42377:1,2022-07-03T22:00:00Z,27.2925,-90.9681,21.3,29.3,11111222
Anadarko,ioos:station:wmo:42377:1,2022-07-03T22:20:00Z,27.2925,-90.9681,21.3,29.3,11111222
Anadarko,ioos:station:wmo:42377:1,2022-07-03T22:40:00Z,27.2925,-90.9681,21.3,29.3,11111222
Anadarko,ioos:station:wmo:42377:1,2022-07-03T23:00:00Z,27.2925,-90.9681,21.3,29.3,11111222
Anadarko,ioos:station:wmo:42377:1,2022-07-03T23:20:00Z,27.2925,-90.9681,21.3,29.2,11111222
Anadarko,ioos:station:wmo:42377:1,2022-07-03T23:40:00Z,27.2925,-90.9681,21.3,29.0,11111222
Anadarko,ioos:station:wmo:42377:1,2022-07-04T00:00:00Z,27.2925,-90.9681,21.3,29.1,11111222
Anadarko,ioos:station:wmo:42377:1,2022-07-04T00:20:00Z,27.2925,-90.9681,21.3,29.2,11111222
Anadarko,ioos:station:wmo:42377:1,2022-07-04T00:40:00Z,27.2925,-90.9681,21.3,29.5,11111222
Anadarko,ioos:station:wmo:42377:1,2022-07-04T01:00:00Z,27.2925,-90.9681,21.3,29.4,11111222
Anadarko,ioos:station:wmo:42377:1,2022-07-04T01:20:00Z,27.2925,-90.9681,21.3,29.4,11111222
Anadarko,ioos:station:wmo:42377:1,2022-07-04T01:40:00Z,27.2925,-90.9681,21.3,29.5,11111222
Anadarko,ioos:station:wmo:42377:1,2022-07-04T02:00:00Z,27.2925,-90.9681,21.3,29.6,11111222
Anadarko,ioos:station:wmo:42377:1,2022-07-04T02:20:00Z,27.2925,-90.9681,21.3,29.6,11111222
Anadarko,ioos:station:wmo:42377:1,2022-07-04T02:40:00Z,27.2925,-90.9681,21.3,29.8,11111222
Anadarko,ioos:station:wmo:42377:1,2022-07-04T03:00:00Z,27.2925,-90.9681,21.3,29.9,11111222
Anadarko,ioos:station:wmo:42377:1,2022-07-04T03:20:00Z,27.2925,-90.9681,21.3,29.9,11111222
Anadarko,ioos:station:wmo:42377:1,2022-07-04T03:40:00Z,27.2925,-90.9681,21.3,29.7,11111222
Anadarko,ioos:station:wmo:42377:1,2022-07-04T04:00:00Z,27.2925,-90.9681,21.3,29.7,11111222
Anadarko,ioos:station:wmo:42377:1,2022-07-04T04:20:00Z,27.2925,-90.9681,21.3,29.9,11111222
Anadarko,ioos:station:wmo:42377:1,2022-07-04T04:40:00Z,27.2925,-90.9681,21.3,29.9,11111222
Anadarko,ioos:station:wmo:42377:1,2022-07-04T05:00:00Z,27.2925,-90.9681,21.3,30.0,11111222
Anadarko,ioos:station:wmo:42377:1,2022-07-04T05:20:00Z,27.2925,-90.9681,21.3,29.9,11111222
Anadarko,ioos:station:wmo:42377:1,2022-07-04T05:40:00Z,27.2925,-90.9681,21.3,30.0,11111222
Anadarko,ioos:station:wmo:42377:1,2022-07-04T06:00:00Z,27.2925,-90.9681,21.3,29.9,11111222
Anadarko,ioos:station:wmo:42377:1,2022-07-04T06:20:00Z,27.2925,-90.9681,21.3,29.9,11111222
Anadarko,ioos:station:wmo:42377:1,2022-07-04T06:40:00Z,27.2925,-90.9681,21.3,29.6,11111222
Anadarko,ioos:station:wmo:42377:1,2022-07-04T07:00:00Z,27.2925,-90.9681,21.3,29.5,11111222
Anadarko,ioos:station:wmo:42377:1,2022-07-04T07:20:00Z,27.2925,-90.9681,21.3,29.3,11111222
Anadarko,ioos:station:wmo:42377:1,2022-07-04T07:40:00Z,27.2925,-90.9681,21.3,29.4,11111222
Anadarko,ioos:station:wmo:42377:1,2022-07-04T08:00:00Z,27.2925,-90.9681,21.3,29.4,11111222
Anadarko,ioos:station:wmo:42377:1,2022-07-04T08:20:00Z,27.2925,-90.9681,21.3,29.5,11111222
Anadarko,ioos:station:wmo:42377:1,2022-07-04T08:40:00Z,27.2925,-90.9681,21.3,29.5,11111222
Anadarko,ioos:station:wmo:42377:1,2022-07-04T09:00:00Z,27.2925,-90.9681,21.3,29.6,11111222
Anadarko,ioos:station:wmo:42377:1,2022-07-04T09:20:00Z,27.2925,-90.9681,21.3,29.8,11111222
Anadarko,ioos:station:wmo:42377:1,2022-07-04T09:40:00Z,27.2925,-90.9681,21.3,29.8,11111222
Anadarko,ioos:station:wmo:42377:1,2022-07-04T10:00:00Z,27.2925,-90.9681,21.3,29.9,11111222
Anadarko,ioos:station:wmo:42377:1,2022-07-04T10:20:00Z,27.2925,-90.9681,21.3,29.9,11111222
Anadarko,ioos:station:wmo:42377:1,2022-07-04T10:40:00Z,27.2925,-90.9681,21.3,29.8,11111222
Anadarko,ioos:station:wmo:42377:1,2022-07-04T11:00:00Z,27.2925,-90.9681,21.3,29.5,11111222
Anadarko,ioos:station:wmo:42377:1,2022-07-04T11:20:00Z,27.2925,-90.9681,21.3,29.6,11111222
Anadarko,ioos:station:wmo:42377:1,2022-07-04T11:40:00Z,27.2925,-90.9681,21.3,29.5,11111222
Anadarko,ioos:station:wmo:42377:1,2022-07-04T12:00:00Z,27.2925,-90.9681,21.3,29.4,11111222
Anadarko,ioos:station:wmo:42377:1,2022-07-04T12:20:00Z,27.2925,-90.9681,21.3,29.6,11111222
Anadarko,ioos:station:wmo:42377:1,2022-07-04T12:40:00Z,27.2925,-90.9681,21.3,29.6,11111222
Anadarko,ioos:station:wmo:42377:1,2022-07-04T13:00:00Z,27.2925,-90.9681,21.3,29.8,11111222
Anadarko,ioos:station:wmo:42377:1,2022-07-04T13:20:00Z,27.2925,-90.9681,21.3,29.8,11111222
Anadarko,ioos:station:wmo:42377:1,2022-07-04T13:40:00Z,27.2925,-90.9681,21.3,29.8,11111222
Anadarko,ioos:station:wmo:42377:1,2022-07-04T14:00:00Z,27.2925,-90.9681,21.3,29.6,11111222